When you browse on this site, cookies collect data to enhance your experience and personalize the content and advertising you see.
Visit our Privacy Policy to learn more. By continuing to use the site, you agree to this use of cookies and data.
  • In Hungary
  • List of Countries
  • For 7 days
  • Water Temperature
  • Satellite Maps
  • Weather Map
  • News
  • Weather Widgets
  • user-avatar
    Login

    Hourly Weather Temuco

    Today, 26 March, Tuesday

    Time Temperature Precipitation Wind Pressure Humidity
    00:00 +11°C° 0 mm 0 mps 751 mmHg 80%
    01:00 +11°C° 0 mm 0 mps 751 mmHg 79%
    02:00 +10°C° 0 mm 0 mps 751 mmHg 77%
    03:00 +10°C° 0 mm 0 mps 751 mmHg 75%
    04:00 +10°C° 0 mm 0 mps 751 mmHg 73%
    05:00 +11°C° 0 mm 0 mps 750 mmHg 69%
    06:00 +11°C° 0 mm 0 mps 750 mmHg 66%
    07:00 +13°C° 0 mm 1 mps 750 mmHg 63%
    08:00 +18°C° 0 mm 1 mps 750 mmHg 52%
    09:00 +22°C° 0 mm 1 mps 750 mmHg 42%
    10:00 +26°C° 0 mm 1 mps 750 mmHg 31%
    11:00 +28°C° 0 mm 1 mps 749 mmHg 27%
    12:00 +30°C° 0 mm 1 mps 749 mmHg 24%
    13:00 +32°C° 0 mm 1 mps 749 mmHg 20%
    14:00 +32°C° 0 mm 1 mps 748 mmHg 21%
    15:00 +32°C° 0 mm 1 mps 748 mmHg 21%
    16:00 +32°C° 0 mm 1 mps 748 mmHg 22%
    17:00 +28°C° 0 mm 1 mps 748 mmHg 29%
    18:00 +25°C° 0 mm 1 mps 748 mmHg 36%
    19:00 +21°C° 0 mm 1 mps 748 mmHg 44%
    20:00 +20°C° 0 mm 1 mps 748 mmHg 45%
    21:00 +19°C° 0 mm 1 mps 748 mmHg 47%
    22:00 +18°C° 0 mm 1 mps 749 mmHg 49%
    23:00 +18°C° 0 mm 1 mps 749 mmHg 49%

    Tomorrow, 27 March, Wednesday

    Time Temperature Precipitation Wind Pressure Humidity
    00:00 +16°C° 0 mm 1 mps 749 mmHg 49%
    01:00 +16°C° 0 mm 1 mps 749 mmHg 50%
    02:00 +15°C° 0 mm 1 mps 749 mmHg 51%
    03:00 +15°C° 0 mm 1 mps 748 mmHg 52%
    04:00 +13°C° 0 mm 0 mps 748 mmHg 53%
    05:00 +14°C° 0 mm 0 mps 748 mmHg 53%
    06:00 +14°C° 0 mm 0 mps 748 mmHg 53%
    07:00 +14°C° 0 mm 0 mps 749 mmHg 53%
    08:00 +18°C° 0 mm 0 mps 749 mmHg 45%
    09:00 +23°C° 0 mm 0 mps 749 mmHg 37%
    10:00 +27°C° 0 mm 0 mps 749 mmHg 28%
    11:00 +29°C° 0 mm 0 mps 749 mmHg 26%
    12:00 +31°C° 0 mm 0 mps 748 mmHg 23%
    13:00 +33°C° 0 mm 0 mps 748 mmHg 20%
    14:00 +34°C° 0 mm 1 mps 748 mmHg 21%
    15:00 +34°C° 0 mm 2 mps 748 mmHg 22%
    16:00 +31°C° 0 mm 2 mps 748 mmHg 24%
    17:00 +28°C° 0 mm 2 mps 748 mmHg 32%
    18:00 +24°C° 0 mm 2 mps 749 mmHg 40%
    19:00 +20°C° 0 mm 1 mps 749 mmHg 48%
    20:00 +19°C° 0 mm 1 mps 749 mmHg 52%
    21:00 +16°C° 0 mm 0 mps 750 mmHg 56%
    22:00 +14°C° 0 mm 0 mps 750 mmHg 59%
    23:00 +14°C° 0 mm 0 mps 750 mmHg 60%

    Day after tomorrow, 28 March, Thursday

    Time Temperature Precipitation Wind Pressure Humidity
    00:00 +14°C° 0 mm 0 mps 750 mmHg 61%
    01:00 +13°C° 0 mm 0 mps 750 mmHg 62%
    02:00 +13°C° 0 mm 0 mps 750 mmHg 63%
    03:00 +13°C° 0 mm 0 mps 751 mmHg 64%
    04:00 +13°C° 0 mm 0 mps 751 mmHg 65%
    05:00 +13°C° 0 mm 0 mps 751 mmHg 64%
    06:00 +14°C° 0 mm 0 mps 751 mmHg 63%
    07:00 +14°C° 0 mm 0 mps 751 mmHg 62%
    08:00 +18°C° 0 mm 0 mps 752 mmHg 52%
    09:00 +21°C° 0 mm 0 mps 752 mmHg 42%
    10:00 +25°C° 0 mm 0 mps 752 mmHg 32%
    11:00 +27°C° 0 mm 0 mps 752 mmHg 29%
    12:00 +30°C° 0 mm 1 mps 751 mmHg 25%
    13:00 +32°C° 0 mm 1 mps 751 mmHg 21%
    14:00 +31°C° 0 mm 1 mps 751 mmHg 23%
    15:00 +30°C° 0 mm 2 mps 751 mmHg 25%
    16:00 +29°C° 0 mm 2 mps 750 mmHg 27%
    17:00 +25°C° 0 mm 2 mps 750 mmHg 39%
    18:00 +22°C° 0 mm 1 mps 751 mmHg 50%
    19:00 +18°C° 0 mm 1 mps 751 mmHg 62%
    20:00 +16°C° 0 mm 1 mps 751 mmHg 66%
    21:00 +15°C° 0 mm 1 mps 751 mmHg 69%
    22:00 +13°C° 0 mm 0 mps 751 mmHg 73%
    23:00 +13°C° 0 mm 0 mps 750 mmHg 75%

    29 March, Friday

    Time Temperature Precipitation Wind Pressure Humidity
    00:00 +12°C° 0 mm 0 mps 750 mmHg 77%
    01:00 +12°C° 0 mm 0 mps 750 mmHg 79%
    02:00 +11°C° 0 mm 0 mps 750 mmHg 80%
    03:00 +11°C° 0 mm 0 mps 750 mmHg 81%
    04:00 +10°C° 0 mm 0 mps 749 mmHg 82%
    05:00 +11°C° 0 mm 0 mps 749 mmHg 79%
    06:00 +13°C° 0 mm 1 mps 750 mmHg 76%
    07:00 +13°C° 0 mm 1 mps 750 mmHg 72%
    08:00 +16°C° 0 mm 1 mps 750 mmHg 62%
    09:00 +21°C° 0 mm 1 mps 750 mmHg 51%
    10:00 +24°C° 0 mm 1 mps 750 mmHg 40%
    11:00 +25°C° 0 mm 2 mps 750 mmHg 37%
    12:00 +26°C° 0 mm 2 mps 750 mmHg 34%
    13:00 +27°C° 0 mm 3 mps 750 mmHg 30%
    14:00 +25°C° 0 mm 3 mps 749 mmHg 34%
    15:00 +24°C° 0 mm 3 mps 749 mmHg 38%
    16:00 +21°C° 0 mm 3 mps 749 mmHg 41%
    17:00 +19°C° 0.2 mm 2 mps 750 mmHg 50%
    18:00 +18°C° 0.2 mm 1 mps 751 mmHg 60%
    19:00 +14°C° 0.2 mm 0 mps 751 mmHg 69%
    20:00 +15°C° 1.2 mm 1 mps 752 mmHg 75%
    21:00 +14°C° 1.2 mm 1 mps 752 mmHg 81%
    22:00 +14°C° 1.2 mm 1 mps 752 mmHg 87%
    23:00 +14°C° 0.1 mm 1 mps 752 mmHg 87%

    30 March, Saturday

    Time Temperature Precipitation Wind Pressure Humidity
    00:00 +14°C° 0.1 mm 1 mps 753 mmHg 87%
    01:00 +14°C° 0.1 mm 1 mps 753 mmHg 88%
    02:00 +12°C° 0 mm 0 mps 753 mmHg 88%
    03:00 +12°C° 0 mm 0 mps 753 mmHg 89%
    04:00 +12°C° 0 mm 0 mps 753 mmHg 90%
    05:00 +12°C° 0 mm 0 mps 753 mmHg 91%
    06:00 +11°C° 0 mm 0 mps 754 mmHg 92%
    07:00 +11°C° 0 mm 0 mps 754 mmHg 93%
    08:00 +14°C° 0 mm 1 mps 754 mmHg 83%
    09:00 +18°C° 0 mm 1 mps 754 mmHg 73%
    10:00 +20°C° 0 mm 1 mps 754 mmHg 63%
    11:00 +21°C° 0 mm 2 mps 753 mmHg 55%
    12:00 +23°C° 0 mm 2 mps 753 mmHg 46%
    13:00 +25°C° 0 mm 2 mps 752 mmHg 38%
    14:00 +25°C° 0 mm 2 mps 752 mmHg 38%
    15:00 +24°C° 0 mm 2 mps 752 mmHg 38%
    16:00 +24°C° 0 mm 2 mps 751 mmHg 38%
    17:00 +20°C° 0 mm 2 mps 752 mmHg 49%
    18:00 +17°C° 0 mm 2 mps 752 mmHg 61%
    19:00 +14°C° 0 mm 2 mps 752 mmHg 72%
    20:00 +13°C° 0 mm 1 mps 752 mmHg 79%
    21:00 +11°C° 0 mm 1 mps 752 mmHg 86%
    22:00 +9°C° 0 mm 0 mps 752 mmHg 94%
    23:00 +9°C° 0 mm 0 mps 752 mmHg 95%

    31 March, Sunday

    Time Temperature Precipitation Wind Pressure Humidity
    00:00 +9°C° 0 mm 1 mps 752 mmHg 96%
    01:00 +9°C° 0 mm 1 mps 752 mmHg 97%
    02:00 +8°C° 0 mm 0 mps 752 mmHg 97%
    03:00 +8°C° 0 mm 0 mps 752 mmHg 96%
    04:00 +8°C° 0 mm 0 mps 751 mmHg 96%
    05:00 +8°C° 0 mm 0 mps 752 mmHg 94%
    06:00 +9°C° 0 mm 0 mps 752 mmHg 93%
    07:00 +10°C° 0 mm 1 mps 752 mmHg 91%
    08:00 +13°C° 0 mm 1 mps 752 mmHg 77%
    09:00 +16°C° 0 mm 1 mps 752 mmHg 64%
    10:00 +20°C° 0 mm 1 mps 752 mmHg 51%
    11:00 +20°C° 0 mm 2 mps 751 mmHg 46%
    12:00 +23°C° 0 mm 2 mps 751 mmHg 40%
    13:00 +24°C° 0 mm 2 mps 751 mmHg 35%
    14:00 +24°C° 0 mm 3 mps 751 mmHg 39%
    15:00 +24°C° 0 mm 3 mps 751 mmHg 42%
    16:00 +22°C° 0 mm 3 mps 752 mmHg 46%
    17:00 +20°C° 0 mm 3 mps 752 mmHg 57%
    18:00 +17°C° 0 mm 2 mps 752 mmHg 67%
    19:00 +14°C° 0 mm 1 mps 753 mmHg 78%
    20:00 +13°C° 0 mm 1 mps 753 mmHg 84%
    21:00 +12°C° 0 mm 1 mps 753 mmHg 89%
    22:00 +10°C° 0 mm 0 mps 753 mmHg 95%
    23:00 +10°C° 0 mm 0 mps 753 mmHg 95%
    Show more